Szeged, Hungary

2:43 PM CET on December 16, 2017 (GMT +0100)
Szeged

Weather History for LHUD - October, 2011

Change the Weather History Date:

Thursday, October 6, 2011

  Actual Average (LRAR) Record (LRAR)
Temperature  
Mean Temperature 62 °F -  
Max Temperature 78 °F 61 °F 79 °F (2012)
Min Temperature 47 °F 41 °F 33 °F (2013)
Degree Days  
Heating Degree Days 2    
Growing Degree Days 12 (Base 50)    
Moisture  
Dew Point 49 °F    
Average Humidity 62    
Maximum Humidity 94    
Minimum Humidity 29    
Precipitation  
Precipitation 0.00 in 0.04 in - ()
Sea Level Pressure  
Sea Level Pressure 30.07 in    
Wind  
Wind Speed 3 mph ()    
Max Wind Speed 8 mph    
Max Gust Speed -    
Visibility 5.6 miles    
Events Fog    
Averages and records for this station are not official NWS values.
T = Trace of Precipitation, MM = Missing Value Source: Averaged Metar Reports

Daily Weather History Graph

Daily Weather History Graph

Search for Another Location

Airport or City:

Trip Planner

Search our weather history database for the weather conditions in past years. The results will help you decide how hot, cold, wet, or windy it might be!

Date:

Astronomy

Oct. 06, 2011 Rise Set
Actual Time 6:43 AM CEST 6:10 PM CEST
Civil Twilight 6:13 AM CEST 6:40 PM CEST
Nautical Twilight 5:39 AM CEST 7:15 PM CEST
Astronomical Twilight 5:04 AM CEST 7:50 PM CEST
Moon 3:30 PM CEST (10/6) 12:55 AM CEST (10/6)
Length of Visible Light 12h 26m
Length of Day
11h 27m
Waxing Gibbous, 73% of the Moon is Illuminated
Oct 6
Waxing Gibbous
Oct 12
Full
Oct 20
Last Quarter
Oct 26
New
Nov 2
First Quarter

Hourly Weather History & Observations

Time (CEST) Temp. Dew Point Humidity Pressure Visibility Wind Dir Wind Speed Gust Speed Precip Events Conditions
12:45 AM 55.4 °F 50.0 °F 82% 30.15 in - NW 2.3 mph - N/A   Clear
1:45 AM 53.6 °F 48.2 °F 82% 30.15 in - WSW 2.3 mph - N/A   Clear
2:00 AM 54 °F 49 °F 77% 30.16 in 12 mi WSW 2.2 mph - -   Partly Cloudy
2:45 AM 51.8 °F 48.2 °F 88% 30.15 in - West 2.3 mph - N/A   Clear
3:45 AM 50.0 °F 48.2 °F 94% 30.15 in - Calm Calm - N/A   Clear
4:45 AM 50.0 °F 48.2 °F 94% 30.15 in - Calm Calm - N/A   Clear
5:45 AM 50.0 °F 48.2 °F 94% 30.15 in 5.0 mi NW 1.2 mph - N/A   Partly Cloudy
6:15 AM 48.2 °F 46.4 °F 93% 30.15 in 3.1 mi NNW 1.2 mph - N/A Fog Fog
6:45 AM 50.0 °F 48.2 °F 94% 30.15 in 4.3 mi South 1.2 mph - N/A Fog Fog
7:15 AM 50.0 °F 48.2 °F 94% 30.15 in 5.0 mi SSW 2.3 mph - N/A Fog Fog
7:45 AM 51.8 °F 50.0 °F 94% 30.15 in 5.0 mi SSW 2.3 mph - N/A   Mostly Cloudy
8:00 AM 52 °F 49 °F 86% 30.14 in 5 mi SSW 2.2 mph - -   Partly Cloudy
8:15 AM 55.4 °F 51.8 °F 88% 30.15 in - South 2.3 mph - N/A   Clear
8:45 AM 59.0 °F 51.8 °F 77% 30.15 in - South 1.2 mph - N/A   Clear
9:15 AM 62.6 °F 51.8 °F 68% 30.15 in - South 3.5 mph - N/A   Clear
9:45 AM 64.4 °F 51.8 °F 64% 30.15 in - South 2.3 mph - N/A   Clear
10:15 AM 68.0 °F 51.8 °F 56% 30.15 in - South 2.3 mph - N/A   Clear
10:45 AM 69.8 °F 51.8 °F 53% 30.12 in - SW 5.8 mph - N/A   Clear
11:15 AM 71.6 °F 50.0 °F 46% 30.12 in - SW 5.8 mph - N/A   Clear
11:45 AM 73.4 °F 50.0 °F 44% 30.12 in - SSW 4.6 mph - N/A   Clear
12:15 PM 75.2 °F 48.2 °F 38% 30.12 in - South 5.8 mph - N/A   Clear
12:45 PM 77.0 °F 50.0 °F 39% 30.09 in - SSW 5.8 mph - N/A   Clear
1:15 PM 75.2 °F 50.0 °F 41% 30.09 in - SSW 6.9 mph - N/A   Clear
1:45 PM 77.0 °F 50.0 °F 39% 30.06 in - South 6.9 mph - N/A   Clear
2:00 PM 76 °F 50 °F 29% 30.06 in 25 mi South 6.7 mph - -   Partly Cloudy
2:15 PM 77.0 °F 50.0 °F 39% 30.06 in - SSW 8.1 mph - N/A   Clear
2:45 PM 77.0 °F 50.0 °F 39% 30.04 in - SSW 6.9 mph - N/A   Clear
3:15 PM 78.8 °F 50.0 °F 36% 30.04 in - SSE 6.9 mph - N/A   Clear
3:45 PM 78.8 °F 50.0 °F 36% 30.01 in - South 6.9 mph - N/A   Clear
4:15 PM 78.8 °F 50.0 °F 36% 30.01 in - South 8.1 mph - N/A   Clear
4:45 PM 77.0 °F 48.2 °F 36% 30.01 in - SSE 8.1 mph - N/A   Clear
5:15 PM 77.0 °F 48.2 °F 36% 29.98 in - South 8.1 mph - N/A   Clear
5:45 PM 73.4 °F 50.0 °F 44% 29.98 in - SSE 6.9 mph - N/A   Clear
6:15 PM 69.8 °F 50.0 °F 49% 29.98 in - SSE 6.9 mph - N/A   Clear
6:45 PM 68.0 °F 50.0 °F 52% 29.98 in - SSE 5.8 mph - N/A   Clear
7:15 PM 66.2 °F 48.2 °F 52% 29.98 in - SSE 5.8 mph - N/A   Clear
7:45 PM 66.2 °F 50.0 °F 56% 29.98 in - SSE 5.8 mph - N/A   Clear
8:15 PM 64.4 °F 48.2 °F 56% 29.95 in - South 5.8 mph - N/A   Clear
8:45 PM 62.6 °F 48.2 °F 59% 29.95 in - South 5.8 mph - N/A   Clear
9:15 PM 60.8 °F 48.2 °F 63% 29.95 in - South 5.8 mph - N/A   Clear
9:45 PM 59.0 °F 48.2 °F 67% 29.95 in - South 5.8 mph - N/A   Clear
10:45 PM 59.0 °F 48.2 °F 67% 29.95 in - South 3.5 mph - N/A   Clear
11:45 PM 57.2 °F 48.2 °F 72% 29.92 in - South 3.5 mph - N/A   Clear